Starlink 32122

operational
NORAD ID: 60285 Int'l Des: 2024-132 Owner: SPXS Country: US Constellation: starlink
LEOCIRCULAR

About Starlink 32122

Description loading...

Live Position

Loading 3D Globe...

Upcoming Passes

Altitude History

Altitude vs Time

uPlot chart will show altitude changes over time

Two-Line Element Set

1 60285U 24132H 25353.89870468 .00000180 00000-0 18209-4 0 9994
2 60285 53.1606 63.0835 0001055 92.2584 267.8538 15.30188854 79345
Epoch: Dec 19, 2025 • Age: 25 hours

Current Status

Altitude 477.0 km
Velocity 7.63 km/s
Sub-Earth Point -4.69°S, 14.4°W
Launch Date Jul 28, 2024
Age 1.3 years
Type internet

Technical Details

Classification Payload
Mass 730.00 kg
Dry Mass 700.00 kg
Total Mass 730.00 kg
Length 0.30 m
Diameter 4.10 m
Span 29.00 m
Shape Box + pan
Manufacturer SPXS
Bus Type Starlink V2M
Phase Status In Orbit
Owner/State SPXS/US

Large Constellations

Loading constellations...